Cherry Point, NC

10:14 PM EDT on June 22, 2017 (GMT -0400)
Cherry Point Marine Corps Air Station

Weather History for KNKT - February, 2014

Change the Weather History Date:

Tuesday, February 11, 2014

  Actual Average Record
Temperature  
Mean Temperature 31 °F -  
Max Temperature 34 °F 55 °F 73 °F (2017)
Min Temperature 28 °F 35 °F 21 °F (2007)
Degree Days  
Heating Degree Days 34    
Moisture  
Dew Point 26 °F    
Average Humidity 84    
Maximum Humidity 88    
Minimum Humidity 69    
Precipitation  
Precipitation 0.60 in - - ()
Sea Level Pressure  
Sea Level Pressure 30.31 in    
Wind  
Wind Speed 16 mph (NNE)    
Max Wind Speed 24 mph    
Max Gust Speed 31 mph    
Visibility 4 miles    
Events Rain , Snow    
Averages and records for this station are not official NWS values.
T = Trace of Precipitation, MM = Missing Value Source: NWS Daily Summary

Daily Weather History Graph

Daily Weather History Graph

Search for Another Location

Airport or City:

Trip Planner

Search our weather history database for the weather conditions in past years. The results will help you decide how hot, cold, wet, or windy it might be!

Date:

Astronomy

Feb. 11, 2014 Rise Set
Actual Time 6:57 AM EST 5:46 PM EST
Civil Twilight 6:31 AM EST 6:12 PM EST
Nautical Twilight 6:01 AM EST 6:42 PM EST
Astronomical Twilight 5:32 AM EST 7:11 PM EST
Moon 3:08 PM EST (2/11) 4:29 AM EST (2/11)
Length of Visible Light 11h 41m
Length of Day
10h 49m
Waxing Gibbous, 90% of the Moon is Illuminated
Feb 11
Waxing Gibbous
Feb 14
Full
Feb 22
Last Quarter
Mar 1
New
Mar 8
First Quarter

Hourly Weather History & Observations

Time (EST) Temp. Windchill Dew Point Humidity Pressure Visibility Wind Dir Wind Speed Gust Speed Precip Events Conditions
12:54 AM 34.0 °F 24.6 °F 28.9 °F 82% 30.24 in 9.0 mi NNE 13.8 mph - 0.00 in Rain , Snow Light Rain
1:54 AM 33.1 °F 23.9 °F 28.9 °F 85% 30.24 in 4.0 mi NNE 12.7 mph - 0.01 in Snow Light Snow
2:54 AM 33.1 °F 23.0 °F 28.0 °F 82% 30.22 in 7.0 mi NNE 15.0 mph - 0.01 in Rain , Snow Rain
3:54 AM 33.1 °F 23.9 °F 28.0 °F 82% 30.23 in 7.0 mi NNE 12.7 mph - 0.01 in Rain , Snow Rain
4:54 AM 32.0 °F 21.6 °F 28.0 °F 85% 30.25 in 6.0 mi NE 15.0 mph - 0.02 in Snow Light Snow
5:20 AM 32.0 °F 21.2 °F 28.0 °F 85% 30.26 in 7.0 mi NE 16.1 mph - 0.01 in Rain Light Freezing Rain
5:54 AM 32.0 °F 20.8 °F 28.0 °F 85% 30.26 in 6.0 mi NNE 17.3 mph - 0.01 in Rain Light Freezing Rain
6:32 AM 32.0 °F 20.8 °F 28.0 °F 85% 30.28 in 2.5 mi NNE 17.3 mph - 0.02 in Rain Light Freezing Rain
6:43 AM 32.0 °F 21.6 °F 28.9 °F 88% 30.28 in 3.0 mi NE 15.0 mph - 0.04 in Rain Light Freezing Rain
6:54 AM 32.0 °F 21.6 °F 28.0 °F 85% 30.29 in 5.0 mi NNE 15.0 mph - 0.05 in Snow Light Snow
7:05 AM 32.0 °F 19.8 °F 28.0 °F 85% 30.29 in 3.0 mi NE 20.7 mph - 0.00 in Snow Light Snow
7:13 AM 32.0 °F 20.5 °F 28.0 °F 85% 30.29 in 1.5 mi NE 18.4 mph - 0.01 in Snow Light Snow
7:42 AM 30.9 °F 17.8 °F 27.0 °F 85% 30.29 in 1.5 mi NNE 23.0 mph 29.9 mph 0.02 in Snow Light Snow
7:54 AM 30.9 °F 19.1 °F 27.0 °F 85% 30.29 in 1.5 mi NNE 18.4 mph - 0.02 in Snow Light Snow
8:31 AM 30.9 °F 18.4 °F 27.0 °F 85% 30.32 in 1.5 mi NNE 20.7 mph 28.8 mph 0.01 in Snow Light Snow
8:42 AM 30.9 °F 19.8 °F 27.0 °F 85% 30.32 in 1.5 mi NE 16.1 mph - 0.01 in Snow Light Snow
8:52 AM 30.2 °F 18.9 °F 26.6 °F 86% 30.32 in 3.0 mi NNE 16.1 mph - 0.02 in Snow Light Snow
8:54 AM 30.9 °F 19.8 °F 27.0 °F 85% 30.31 in 2.5 mi NNE 16.1 mph - 0.02 in Snow Light Snow
8:58 AM 30.9 °F 18.7 °F 27.0 °F 85% 30.32 in 3.0 mi NNE 19.6 mph - 0.00 in Snow Light Snow
9:12 AM 30.9 °F 19.4 °F 26.1 °F 82% 30.32 in 5.0 mi NNE 17.3 mph - 0.01 in   Overcast
9:32 AM 30.9 °F 19.8 °F 27.0 °F 85% 30.33 in 6.0 mi NNE 16.1 mph - 0.02 in Rain Light Freezing Rain
9:54 AM 30.0 °F 18.7 °F 26.1 °F 85% 30.34 in 3.0 mi NNE 16.1 mph - 0.03 in Snow Light Snow
10:01 AM 30.0 °F 17.9 °F 26.1 °F 85% 30.34 in 1.8 mi NNE 18.4 mph - 0.01 in Snow Light Snow
10:14 AM 30.0 °F 20.0 °F 27.0 °F 88% 30.34 in 1.0 mi NNE 12.7 mph - 0.02 in Snow Light Snow
10:18 AM 30.0 °F 18.7 °F 27.0 °F 88% 30.34 in 0.8 mi NNE 16.1 mph - 0.02 in Snow Light Snow
10:20 AM 30.0 °F 19.1 °F 27.0 °F 88% 30.34 in 0.8 mi NNE 15.0 mph - 0.02 in Snow Light Snow
10:23 AM 30.0 °F 18.3 °F 27.0 °F 88% 30.34 in 1.0 mi NNE 17.3 mph 23.0 mph 0.02 in Snow Light Snow
10:25 AM 30.0 °F 17.9 °F 27.0 °F 88% 30.34 in 0.8 mi NE 18.4 mph 23.0 mph 0.02 in Snow Light Snow
10:54 AM 30.9 °F 19.8 °F 27.0 °F 85% 30.32 in 0.8 mi NNE 16.1 mph - 0.05 in   Overcast
11:01 AM 30.9 °F 19.8 °F 27.0 °F 85% 30.33 in 4.0 mi NNE 16.1 mph - 0.01 in   Overcast
11:42 AM 30.0 °F 17.2 °F 26.1 °F 85% 30.32 in 6.0 mi NNE 20.7 mph - 0.01 in Rain Light Freezing Rain
11:54 AM 30.0 °F 19.1 °F 26.1 °F 85% 30.31 in 6.0 mi NNE 15.0 mph 25.3 mph 0.02 in Rain Light Freezing Rain
12:22 PM 30.0 °F 18.3 °F 26.1 °F 85% 30.32 in 4.0 mi NNE 17.3 mph - 0.03 in Rain Light Freezing Rain
12:45 PM 30.0 °F 18.3 °F 26.1 °F 85% 30.31 in 3.0 mi NNE 17.3 mph - 0.06 in Snow Light Snow
12:54 PM 30.0 °F 18.3 °F 26.1 °F 85% 30.30 in 3.0 mi NNE 17.3 mph 23.0 mph 0.07 in   Overcast
1:01 PM 30.0 °F 17.5 °F 26.1 °F 85% 30.31 in 3.0 mi NNE 19.6 mph 25.3 mph 0.00 in   Overcast
1:08 PM 30.0 °F 19.1 °F 26.1 °F 85% 30.31 in 3.0 mi NNE 15.0 mph 25.3 mph 0.01 in   Ice Pellets
1:31 PM 30.0 °F 18.7 °F 26.1 °F 85% 30.30 in 2.5 mi NNE 16.1 mph 25.3 mph 0.04 in Snow Snow
1:35 PM 30.0 °F 17.5 °F 26.1 °F 85% 30.30 in 1.8 mi NNE 19.6 mph 26.5 mph 0.04 in Snow Light Snow
1:40 PM 30.0 °F 18.3 °F 25.0 °F 82% 30.30 in 1.8 mi NNE 17.3 mph 28.8 mph 0.05 in Snow Light Snow
1:54 PM 30.0 °F 19.5 °F 26.1 °F 85% 30.29 in 3.0 mi North 13.8 mph 26.5 mph 0.07 in Rain Light Freezing Rain
1:56 PM 30.0 °F 19.1 °F 26.1 °F 85% 30.30 in 2.5 mi North 15.0 mph - 0.00 in Rain Light Freezing Rain
2:06 PM 30.0 °F 17.5 °F 26.1 °F 85% 30.30 in 3.0 mi NNE 19.6 mph 26.5 mph 0.01 in   Ice Pellets
2:54 PM 28.9 °F 15.8 °F 24.1 °F 82% 30.29 in 5.0 mi NE 20.7 mph - 0.07 in   Ice Pellets
3:01 PM 28.9 °F 16.1 °F 25.0 °F 85% 30.31 in 5.0 mi NNE 19.6 mph - 0.01 in   Ice Pellets
3:30 PM 28.9 °F 18.2 °F 25.0 °F 85% 30.32 in 2.0 mi NNE 13.8 mph - 0.03 in Snow Snow
3:32 PM 28.9 °F 17.3 °F 25.0 °F 85% 30.32 in 1.8 mi NNE 16.1 mph - 0.03 in Snow Snow
3:42 PM 28.0 °F 14.6 °F 24.1 °F 85% 30.33 in 1.8 mi NNE 20.7 mph 26.5 mph 0.05 in Snow Snow
3:47 PM 28.0 °F 16.1 °F 24.1 °F 85% 30.33 in 2.0 mi NNE 16.1 mph 26.5 mph 0.05 in Snow Snow
3:54 PM 28.0 °F 16.1 °F 25.0 °F 88% 30.32 in 3.0 mi NNE 16.1 mph - 0.06 in Snow Snow
4:02 PM 28.0 °F 16.5 °F 24.1 °F 85% 30.33 in 4.0 mi NNE 15.0 mph - 0.00 in Snow Snow
4:11 PM 28.0 °F 13.6 °F 24.1 °F 85% 30.33 in 4.0 mi NNE 24.2 mph 31.1 mph 0.01 in Snow Snow
4:54 PM 28.0 °F 16.1 °F 24.1 °F 85% 30.32 in 5.0 mi NNE 16.1 mph 25.3 mph 0.03 in Snow Snow
5:20 PM 28.0 °F 15.3 °F 24.1 °F 85% 30.33 in 5.0 mi NNE 18.4 mph 27.6 mph 0.01 in Snow Snow
5:54 PM 28.0 °F 16.5 °F 24.1 °F 85% 30.32 in 7.0 mi NNE 15.0 mph - 0.02 in Snow Snow
6:54 PM 28.0 °F 18.1 °F 24.1 °F 85% 30.34 in 7.0 mi NNE 11.5 mph - 0.02 in Snow Snow
7:11 PM 28.0 °F 14.9 °F 23.0 °F 81% 30.34 in 7.0 mi NE 19.6 mph 27.6 mph 0.00 in Snow Snow
7:54 PM 28.0 °F 14.6 °F 21.9 °F 78% 30.35 in 8.0 mi NNE 20.7 mph 28.8 mph 0.00 in Snow Snow
8:54 PM 28.9 °F 18.6 °F 21.9 °F 75% 30.37 in 9.0 mi NNE 12.7 mph - 0.00 in Snow Snow
9:28 PM 28.9 °F 18.6 °F 23.0 °F 78% 30.38 in 10.0 mi NNE 12.7 mph - 0.01 in   Overcast
9:54 PM 28.9 °F 18.2 °F 21.9 °F 75% 30.38 in 10.0 mi NNE 13.8 mph - 0.01 in   Overcast
10:54 PM 28.9 °F 17.7 °F 19.9 °F 69% 30.37 in 10.0 mi NNE 15.0 mph - N/A   Overcast
11:54 PM 28.9 °F 18.2 °F 19.9 °F 69% 30.37 in 10.0 mi NNE 13.8 mph - N/A   Overcast